Location: ?????????
(54.7630°N, 39.4991°E)
Time: 06:48:32
(UTC+00:00)

CZ-4B R/B - Pass Details

Date: 14 April 2026
Orbit: 699 x 798 km, 98.9° (Epoch: 13 May)

Event Time Altitude Azimuth Distance (km) Brightness Sun altitude
Exits shadow 18:13:49 22° 146° (SE) 1,554 4.5 -14.5°
Maximum altitude 18:16:55 66° 69° (ENE) 780 3.4 -14.9°
Drops below altitude 10° 18:21:39 10° 348° (NNW) 2,189 6.7 -15.4°
Sets 18:23:55 0° 345° (NNW) 3,106 7.7 -15.6°
